[[{"header":{"parameterUnit":"m.s-1","parameterCategory":1,"la1":30.2991,"la2":30.254,"lo1":-89.0895,"lo2":-89.0444,"dy":0.0017,"dx":0.0017,"nx":28,"ny":28,"refTime":"2023-10-30T21:00:00:Z","depth":0,"parameterNumber":2,"parameterNumberName":"U-component_of_WINDS"},"data":[0,0,0,0,0,0,0,0,0,0,0,0,0,0,0,0,0,0,0,0,0,0,0,0,0,0,0,0,0,0,0,0,0,0,0,0,0,0,0,0,0,0,0,0,0,0,0,0,0,0,0,0,0,0,0,0,0,0,-2.76,-2.7601,0,-2.7665,-2.7666,-2.7667,-2.7625,-2.7623,-2.7621,-2.7619,-2.7686,-2.7689,-2.7693,0,0,0,0,0,0,0,0,0,0,0,0,0,-2.7439,-2.7442,-2.76,-2.7601,-2.7602,-2.7665,-2.7666,-2.7667,-2.7625,-2.7623,-2.7621,-2.7618,-2.7684,-2.7689,-2.7693,0,0,0,0,0,0,0,0,0,0,0,0,0,-2.7507,-2.7443,-2.76,-2.7589,-2.7588,-2.7665,-2.7666,-2.7667,-2.7626,-2.7623,-2.762,-2.7617,-2.7683,-2.7688,-2.7694,-2.7785,0,0,-2.771,-2.7712,0,0,0,0,0,0,0,0,-2.7503,-2.7513,-2.759,-2.759,-2.7589,-2.7634,-2.7633,-2.7707,-2.7627,-2.7612,-2.7619,-2.7616,-2.7671,-2.7677,-2.7696,-2.7788,-2.7791,-2.771,-2.7714,-2.7716,-2.7717,0,0,0,0,0,0,0,-2.7499,-2.751,-2.7626,-2.7591,-2.7591,-2.758,-2.7587,-2.7647,-2.7657,-2.7613,-2.761,-2.7618,-2.767,-2.7691,-2.7697,-2.7792,-2.771,-2.7715,-2.7718,-2.772,-2.7962,-2.7966,0,0,0,0,0,0,-2.7495,-2.7506,-2.7624,-2.7628,-2.7538,-2.7585,-2.7593,-2.7623,-2.7656,-2.7658,-2.7621,-2.7616,-2.7683,-2.7691,-2.7699,-2.7809,-2.7716,-2.7721,-2.7724,-2.7959,-2.7963,-2.7967,0,0,0,0,0,0,-2.7492,-2.7506,-2.7621,-2.7566,-2.758,-2.7591,-2.7625,-2.7625,-2.7646,-2.7662,-2.7663,-2.764,-2.7681,-2.7691,-2.7764,-2.781,-2.7723,-2.7728,-2.7955,-2.796,-2.7965,-2.8029,0,0,0,0,0,0,-2.7487,-2.7505,-2.754,-2.7567,-2.7583,-2.7686,-2.7628,-2.7629,-2.7655,-2.765,-2.768,-2.7682,-2.7679,-2.7756,-2.7769,-2.7816,-2.7732,-2.7951,-2.7958,-2.7963,-2.8022,-2.8035,-2.8046,0,0,0,0,0,-2.7481,-2.7555,-2.7542,-2.7556,-2.7628,-2.7688,-2.7697,-2.7692,-2.7659,-2.7694,-2.7705,-2.7681,-2.7803,-2.7764,-2.7778,-2.7828,-2.7948,-2.7956,-2.7963,-2.8017,-2.8033,-2.8046,0,0,0,0,0,0,-2.7533,-2.7559,-2.7544,-2.7629,-2.7657,-2.7681,-2.7726,-2.7709,-2.7747,-2.774,-2.7732,-2.7739,-2.7815,-2.7828,-2.7784,-2.7918,-2.787,-2.7881,-2.7907,-2.7921,-2.7933,-2.7929,-2.7737,0,0,0,0,0,-2.7554,-2.7601,-2.7621,-2.7694,-2.7709,-2.7715,-2.7741,-2.7735,-2.7763,-2.7775,-2.779,-2.7819,-2.7863,-2.7893,-2.7934,-2.8023,-2.803,-2.8064,-2.8076,-2.8085,-2.8095,-2.8144,-2.8159,-2.799,-2.799,-2.799,0,0,-2.7598,-2.7618,-2.7649,-2.7705,-2.7726,-2.7775,-2.7725,-2.7779,-2.7816,-2.7783,-2.7853,-2.7865,-2.7896,-2.7977,-2.8014,-2.7991,-2.8143,-2.8095,-2.8102,-2.8107,-2.8153,-2.8169,-2.8183,-2.7995,-2.7994,-2.7994,0,0,-2.7704,-2.7724,-2.7787,-2.7809,-2.7841,-2.7845,-2.786,-2.7887,-2.7894,-2.7963,-2.794,-2.7983,-2.8059,-2.8083,-2.8105,-2.8219,-2.8199,-2.8232,-2.8294,-2.8341,-2.8355,-2.8366,-2.8408,-2.8423,-2.8242,-2.8242,-2.8242,0,-2.7756,-2.7829,-2.7822,-2.7878,-2.7904,-2.7876,-2.794,-2.7961,-2.8005,-2.8023,-2.7996,-2.8092,-2.8111,-2.8198,-2.8225,-2.8244,-2.8261,-2.823,-2.8353,-2.8365,-2.8376,-2.8416,-2.8431,-2.8246,-2.8245,-2.8245,-2.8244,0,-2.7891,-2.7942,-2.7989,-2.8033,-2.8063,-2.8123,-2.8125,-2.8156,-2.8147,-2.8153,-2.8224,-2.8246,-2.8292,-2.8311,-2.8303,-2.8397,-2.8382,-2.8354,-2.8307,-2.8396,-2.8433,-2.8448,-2.8251,-2.825,-2.8249,-2.8248,0,0,-2.8033,-2.8071,-2.8089,-2.8108,-2.8141,-2.8181,-2.8239,-2.8284,-2.8311,-2.8342,-2.8391,-2.8456,-2.8431,-2.8456,-2.8449,-2.8491,-2.8581,-2.8458,-2.8459,-2.8481,-2.8686,-2.8708,-2.8726,-2.8567,-2.857,-2.8572,-2.8684,0,-2.8142,-2.8244,-2.8239,-2.8335,-2.8382,-2.8356,-2.8406,-2.8432,-2.8439,-2.848,-2.8487,-2.8534,-2.8497,-2.8512,-2.8552,-2.8561,-2.8622,-2.8553,-2.8613,-2.8615,-2.8608,-2.8745,-2.8768,-2.8873,-2.8698,-2.8701,-2.8703,0,-2.8283,-2.8319,-2.842,-2.8446,-2.8466,-2.8512,-2.8552,-2.8592,-2.862,-2.8622,-2.865,-2.8636,-2.8695,-2.8645,-2.8725,-2.8679,-2.8702,-2.8711,-2.8715,-2.8721,-2.8666,-2.8756,-2.8906,-2.8922,-2.8725,-2.8723,-2.8722,0,-2.8378,-2.8452,-2.8522,-2.8539,-2.8571,-2.8604,-2.8618,-2.8643,-2.8671,-2.8706,-2.8724,-2.8765,-2.8788,-2.882,-2.8818,-2.8782,-2.89,-2.885,-2.8904,-2.8904,-2.8932,-2.893,-2.9088,-2.8945,-2.8945,-2.8944,-2.8944,0,-2.8501,-2.8564,-2.8565,-2.8608,-2.8678,-2.867,-2.8739,-2.875,-2.8773,-2.8817,-2.8796,-2.8839,-2.8833,-2.8875,-2.8873,-2.8941,-2.8951,-2.8955,-2.8954,-2.8958,-2.8957,-2.8974,-2.8967,-2.8948,-2.8947,-2.8947,-2.8946,0,-2.862,-2.8623,-2.8697,-2.8721,-2.8728,-2.8779,-2.8799,-2.884,-2.8844,-2.8901,-2.8914,-2.8922,-2.897,-2.8971,-2.9026,-2.9025,-2.9108,-2.9098,-2.9099,-2.9098,-2.9152,-2.9148,-2.9328,-2.9351,-2.9191,-2.9193,-2.9194,0,-2.8699,-2.8747,-2.8776,-2.8805,-2.8821,-2.8867,-2.8895,-2.8889,-2.8919,-2.8954,-2.8991,-2.9038,-2.9075,-2.9154,-2.9164,-2.9206,-2.9198,-2.9258,-2.9204,-2.9207,-2.92,-2.9198,-2.9203,-2.9269,-2.9271,-2.9273,-2.9274,0,-2.884,-2.8839,-2.888,-2.8922,-2.8955,-2.8988,-2.9018,-2.9042,-2.9039,-2.9074,-2.9123,-2.9152,-2.9209,-2.9256,-2.9296,-2.9311,-2.9293,-2.929,-2.9305,-2.9311,-2.9309,-2.9312,-2.9129,-2.9287,-2.9285,-2.9285,-2.9284,-2.9283,-2.8942,-2.8984,-2.9011,-2.9057,-2.9079,-2.9107,-2.9147,-2.9156,-2.9198,-2.9244,-2.9237,-2.9293,-2.9319,-2.9372,-2.939,-2.9433,-2.9412,-2.9434,-2.9439,-2.9445,-2.9452,-2.9301,-2.944,-2.944,-2.9439,-2.9439,-2.9439,0,-2.9083,-2.9099,-2.9142,-2.9184,-2.9221,-2.9199,-2.9231,-2.9263,-2.9312,-2.9338,-2.9375,-2.9432,-2.9477,-2.9491,-2.9534,-2.9566,-2.9559,-2.9578,-2.9576,-2.958,-2.9467,-2.9451,-2.9583,-2.9583,-2.9583,-2.9583,-2.9583,-2.9583,-2.9161,-2.923,-2.9232,-2.9312,-2.9327,-2.9381,-2.9401,-2.9427,-2.9448,-2.9513,-2.955,-2.9559,-2.958,-2.9624,-2.9665,-2.9667,-2.9685,-2.9708,-2.9707,-2.9602,-2.9588,-2.9574,-2.9558,-2.9711,-2.9711,-2.9816,-2.9817,-2.9818]},{"header":{"parameterUnit":"m.s-1","parameterCategory":1,"la1":30.2991,"la2":30.254,"lo1":-89.0895,"lo2":-89.0444,"dy":0.0017,"dx":0.0017,"nx":28,"ny":28,"refTime":"2023-10-30T21:00:00:Z","depth":0,"parameterNumber":3,"parameterNumberName":"V-component_of_WINDS"},"data":[0,0,0,0,0,0,0,0,0,0,0,0,0,0,0,0,0,0,0,0,0,0,0,0,0,0,0,0,0,0,0,0,0,0,0,0,0,0,0,0,0,0,0,0,0,0,0,0,0,0,0,0,0,0,0,0,0,0,-8.4825,-8.4826,0,-8.4925,-8.4926,-8.4927,-8.4847,-8.4843,-8.484,-8.4837,-8.4933,-8.4938,-8.4944,0,0,0,0,0,0,0,0,0,0,0,0,0,-8.4557,-8.4563,-8.4825,-8.4826,-8.4827,-8.4925,-8.4926,-8.4928,-8.4847,-8.4843,-8.4839,-8.4835,-8.4931,-8.4938,-8.4945,0,0,0,0,0,0,0,0,0,0,0,0,0,-8.4667,-8.4564,-8.4825,-8.4799,-8.4798,-8.4925,-8.4926,-8.4928,-8.4848,-8.4843,-8.4838,-8.4833,-8.4929,-8.4937,-8.4945,-8.5101,0,0,-8.4972,-8.4975,0,0,0,0,0,0,0,0,-8.4661,-8.4677,-8.4802,-8.4801,-8.48,-8.4868,-8.4867,-8.4986,-8.4849,-8.4829,-8.4837,-8.4831,-8.4915,-8.4924,-8.4954,-8.5105,-8.5109,-8.4972,-8.4978,-8.4981,-8.4984,0,0,0,0,0,0,0,-8.4653,-8.4672,-8.4864,-8.4804,-8.4803,-8.4781,-8.4791,-8.4889,-8.4899,-8.483,-8.4825,-8.4838,-8.4913,-8.4946,-8.4956,-8.5111,-8.4972,-8.498,-8.4985,-8.4989,-8.5394,-8.5399,0,0,0,0,0,0,-8.4649,-8.4666,-8.4861,-8.4867,-8.4717,-8.479,-8.4801,-8.4851,-8.4898,-8.49,-8.4842,-8.4834,-8.4934,-8.4946,-8.4959,-8.5144,-8.4981,-8.4989,-8.4994,-8.5388,-8.5395,-8.5401,0,0,0,0,0,0,-8.4644,-8.4667,-8.4857,-8.4765,-8.4788,-8.48,-8.4857,-8.4856,-8.4889,-8.4907,-8.4908,-8.4874,-8.493,-8.4947,-8.5066,-8.5146,-8.4993,-8.5001,-8.5381,-8.539,-8.5398,-8.5515,0,0,0,0,0,0,-8.4636,-8.4666,-8.4727,-8.4768,-8.4793,-8.4965,-8.4862,-8.4862,-8.4905,-8.4895,-8.4937,-8.4939,-8.4928,-8.5054,-8.5075,-8.5155,-8.5008,-8.5374,-8.5385,-8.5395,-8.5504,-8.5527,-8.5546,0,0,0,0,0,-8.4627,-8.4754,-8.473,-8.4754,-8.487,-8.497,-8.4984,-8.497,-8.4911,-8.4971,-8.4983,-8.4938,-8.5134,-8.5067,-8.509,-8.5174,-8.5369,-8.5382,-8.5394,-8.5495,-8.5522,-8.5545,0,0,0,0,0,0,-8.472,-8.4759,-8.4733,-8.4877,-8.4921,-8.4956,-8.5032,-8.5,-8.506,-8.5047,-8.5025,-8.5035,-8.5162,-8.5179,-8.5104,-8.5326,-8.5242,-8.526,-8.531,-8.5337,-8.5357,-8.535,-8.5015,0,0,0,0,0,-8.4757,-8.4838,-8.4867,-8.4991,-8.5015,-8.502,-8.5063,-8.5049,-8.5092,-8.511,-8.513,-8.5173,-8.5244,-8.5291,-8.5357,-8.5506,-8.5514,-8.5575,-8.5596,-8.5613,-8.5628,-8.5708,-8.5736,-8.5442,-8.5442,-8.5442,0,0,-8.4835,-8.4866,-8.4918,-8.5011,-8.5043,-8.5125,-8.5036,-8.5126,-8.5187,-8.5123,-8.5238,-8.5255,-8.53,-8.5435,-8.5496,-8.5454,-8.5711,-8.5629,-8.5642,-8.5649,-8.5724,-8.5752,-8.5777,-8.5451,-8.5449,-8.5448,0,0,-8.5019,-8.5051,-8.5159,-8.5194,-8.5245,-8.5247,-8.5273,-8.5314,-8.5323,-8.5439,-8.5393,-8.5462,-8.5586,-8.562,-8.5654,-8.5852,-8.5812,-8.5874,-8.5982,-8.606,-8.6083,-8.6104,-8.6174,-8.62,-8.5889,-8.5889,-8.5889,0,-8.5108,-8.5233,-8.5217,-8.5312,-8.5354,-8.5302,-8.541,-8.5444,-8.5513,-8.5542,-8.5495,-8.5649,-8.5675,-8.5818,-8.5867,-8.5896,-8.5923,-8.5869,-8.6081,-8.6102,-8.612,-8.6187,-8.6214,-8.5896,-8.5896,-8.5895,-8.5894,0,-8.534,-8.5427,-8.5507,-8.5579,-8.5629,-8.573,-8.5728,-8.578,-8.5761,-8.5769,-8.5886,-8.5917,-8.5989,-8.6022,-8.6003,-8.6162,-8.6135,-8.6085,-8.5999,-8.6156,-8.6219,-8.6244,-8.5907,-8.5904,-8.5902,-8.59,0,0,-8.5584,-8.5647,-8.5677,-8.5709,-8.5762,-8.5828,-8.5925,-8.5998,-8.6043,-8.6093,-8.6173,-8.6279,-8.6234,-8.6272,-8.6257,-8.6326,-8.648,-8.6267,-8.6268,-8.6306,-8.6657,-8.6694,-8.6725,-8.6454,-8.6459,-8.6463,-8.6653,0,-8.5771,-8.5944,-8.5934,-8.6095,-8.6175,-8.6127,-8.6212,-8.6253,-8.6262,-8.6329,-8.6337,-8.6413,-8.6347,-8.637,-8.6436,-8.6448,-8.655,-8.6434,-8.6528,-8.6531,-8.6519,-8.6757,-8.6797,-8.6975,-8.6677,-8.6682,-8.6685,0,-8.6012,-8.6073,-8.6244,-8.6285,-8.6318,-8.6395,-8.6461,-8.6526,-8.6571,-8.6572,-8.6616,-8.6589,-8.6686,-8.6599,-8.6731,-8.6652,-8.6689,-8.67,-8.6707,-8.6715,-8.6618,-8.6772,-8.7031,-8.7058,-8.6723,-8.672,-8.6717,0,-8.6174,-8.6298,-8.6416,-8.6445,-8.6496,-8.6552,-8.6575,-8.6615,-8.6659,-8.6716,-8.6744,-8.6811,-8.6847,-8.6898,-8.6889,-8.6827,-8.7024,-8.6936,-8.7027,-8.7028,-8.7071,-8.7068,-8.734,-8.7095,-8.7095,-8.7094,-8.7094,0,-8.6383,-8.649,-8.649,-8.6563,-8.668,-8.6666,-8.6781,-8.6798,-8.6834,-8.6908,-8.6869,-8.6939,-8.6923,-8.6992,-8.6985,-8.7095,-8.7112,-8.7115,-8.7112,-8.7119,-8.7118,-8.7143,-8.713,-8.7101,-8.71,-8.7098,-8.7097,0,-8.6584,-8.6589,-8.6715,-8.6754,-8.6766,-8.6851,-8.6883,-8.6951,-8.6957,-8.7051,-8.7072,-8.7081,-8.716,-8.7156,-8.7244,-8.724,-8.7376,-8.7358,-8.7362,-8.7359,-8.745,-8.7442,-8.7748,-8.7787,-8.7516,-8.7519,-8.7521,0,-8.6718,-8.6799,-8.6848,-8.6896,-8.6924,-8.7001,-8.7047,-8.7036,-8.7085,-8.7142,-8.7203,-8.7278,-8.7338,-8.7466,-8.7479,-8.7546,-8.753,-8.7633,-8.754,-8.7544,-8.7532,-8.7527,-8.7535,-8.7651,-8.7654,-8.7656,-8.7658,0,-8.6955,-8.6953,-8.7023,-8.7093,-8.715,-8.7204,-8.7254,-8.7294,-8.7288,-8.7344,-8.7426,-8.7473,-8.7565,-8.764,-8.7705,-8.7726,-8.7691,-8.7688,-8.7712,-8.772,-8.7719,-8.7721,-8.7412,-8.7681,-8.7678,-8.7677,-8.7676,-8.7675,-8.7126,-8.7196,-8.7242,-8.7321,-8.7357,-8.7405,-8.7471,-8.7486,-8.7555,-8.7631,-8.7619,-8.771,-8.7751,-8.7835,-8.7863,-8.7932,-8.7895,-8.7931,-8.794,-8.7949,-8.796,-8.7708,-8.7944,-8.7943,-8.7942,-8.7942,-8.7941,0,-8.7362,-8.7389,-8.7461,-8.7534,-8.7595,-8.7559,-8.7612,-8.7665,-8.7747,-8.779,-8.7851,-8.7944,-8.8017,-8.8036,-8.8106,-8.8158,-8.8144,-8.8177,-8.8173,-8.8178,-8.7989,-8.7961,-8.8187,-8.8187,-8.8187,-8.8187,-8.8187,-8.8187,-8.7491,-8.7609,-8.7613,-8.7747,-8.7772,-8.7864,-8.7897,-8.794,-8.7974,-8.8082,-8.8143,-8.8156,-8.8189,-8.8261,-8.8326,-8.8329,-8.8357,-8.8396,-8.8393,-8.8216,-8.8191,-8.8168,-8.8141,-8.8402,-8.8403,-8.8577,-8.8579,-8.858]}]]